sat.trackr.live / text

‹ back to catalog

STARLINK-1202

NORAD 45183 · 2020-012F

PAYLOAD ACTIVE UNKNOWN

§ Identity

Operator
Country
US
Launch date
2020-02-17
Launch site
AFETR
Launch vehicle
Mass (kg)
RCS (m²)

Purposes: comms

External: N2YO · Heavens-Above · Gunter

§ Orbital elements

Epoch: 2026-09-19T14:02:49.310880Z

Period
93.31 min
Inclination
53.1516°
Eccentricity
0.0002789
Mean motion
15.43265259 rev/d
Perigee alt
434.6 km
Apogee alt
438.4 km
Semi-major
6,814.6 km
B*
1.4531e-3
RAAN
211.2014°
Arg perigee
96.0438°
Mean anomaly
264.0887°
Rev number
36,474

§ Raw data

STARLINK-12021 45183U 20012F   26262.58529295  .00065777  00000+0  14531-2 0  99962 45183  53.1516 211.2014 0002789  96.0438 264.0887 15.43265259364742

JSON: /api/v1/satellites/45183 · /tle

For live sub-satellite position, see the globe view (requires WebGL).

§ Visibility from observer

Set your observer location to see the next 7 days of passes ≥ 10°. The values pass through the URL so the page stays shareable.

No JS? Fill the form by hand. The geolocation button needs JavaScript.